Nur fliegen ist schöner ....

Willkommen beim Flugservice Bautzen GmbH

Wir sind eine nach europäischen Richtlinien zugelassene Flugschule und lizenziertes Luftfahrtunternehmen. Bei uns können sie nicht nur Rundflüge über die Oberlausitz oder Sachsen buchen, sondern in unserer Flugschule selber das Fliegen erlernen. Erfahrene Fluglehrer stehen ihnen dabei zur Seite.

Wir bieten außerdem Businessflüghe sowie Transportleistungen auf dem Luftweg, ganz nach ihren Wünschen, an. Schauen sie sich in Ruhe bei uns um und wenn sie Fragen haben oder weitere Informationen benötigen, scheuen sie sich nicht Kontakt mit uns aufzunehmen.

Rundflüge können sie ganz leicht auch online in unserem Shop buchen.

Terminkalender

Letzter Monat September 2017 Nächster Monat
Mo Di Mi Do Fr Sa So
week 35 1 2 3
week 36 4 5 6 7 8 9 10
week 37 11 12 13 14 15 16 17
week 38 18 19 20 21 22 23 24
week 39 25 26 27 28 29 30

Flugwetterinfo

[Quelle: ADDS]
METAR
EDDC 260520Z 14003KT 090V160 CAVOK 12/11 Q1023 NOSIG =
TAF
EDDC 260500Z 2606/2706 13005KT 9999 SCT030 BECMG 2610/2612 14010KT BECMG 2617/2619 10005KT BECMG 2700/2703 VRB02KT TEMPO 2703/2706 3500 BR =
SR / SS: 04:55 / 16:50 UTC (EDAB Flugplatz Bautzen 2017-09-26)
Flugservice Bautzen GmbH, Kornmarkt 34, 02625 Bautzen  Telefon: +49 (3591) 211105, Telefax: +49 (3591) 274512, E-Mail:  flugservice(at)fsbautzen.de